sat.trackr.live / text

‹ back to catalog

GEOSCAN 6 (RS92S6)

NORAD 64879 · 2025-155D

PAYLOAD ACTIVE UNKNOWN

§ Identity

Operator
Country
CIS
Launch date
2025-07-25
Launch site
VOSTO
Launch vehicle
Mass (kg)
RCS (m²)

Purposes: comms

External: N2YO · Heavens-Above · Gunter

§ Orbital elements

Epoch: 2026-09-19T22:51:46.625472Z

Period
94.01 min
Inclination
97.4672°
Eccentricity
0.0007030
Mean motion
15.31795089 rev/d
Perigee alt
465.6 km
Apogee alt
475.3 km
Semi-major
6,848.6 km
B*
2.4551e-4
RAAN
232.0452°
Arg perigee
184.3848°
Mean anomaly
175.7333°
Rev number
9,526

§ Raw data

GEOSCAN 6 (RS92S6)1 64879U 25155D   26262.95262298  .00007463  00000+0  24551-3 0  99922 64879  97.4672 232.0452 0007030 184.3848 175.7333 15.31795089 95264

JSON: /api/v1/satellites/64879 · /tle

For live sub-satellite position, see the globe view (requires WebGL).

§ Visibility from observer

Set your observer location to see the next 7 days of passes ≥ 10°. The values pass through the URL so the page stays shareable.

No JS? Fill the form by hand. The geolocation button needs JavaScript.

§ Radio — SatNOGS DB

ModeDescriptionDownlinkUplink
GFSK Mode U - GFSK9k6 - AX.25 Beacon and Ham Payload (Geoscan framing) 436.940 MHz

1 transmitter · refreshed weekly from db.satnogs.org